Time,TemperatureF,DewpointF,PressureIn,WindDirection,WindDirectionDegrees,WindSpeedMPH,WindSpeedGustMPH,Humidity,HourlyPrecipIn,Conditions,Clouds,dailyrainin,SoftwareType,DateUTC
2013-07-11 00:01:00,73.7,72.2,29.80,SSW,200,0.0,4.0,95,0.00,,,0.00,WeatherCatV1.02B3,2013-07-11 04:01:00,
2013-07-11 00:06:00,73.6,72.1,29.80,SW,225,0.0,2.0,95,0.00,,,0.00,WeatherCatV1.02B3,2013-07-11 04:06:00,
2013-07-11 00:11:00,73.6,72.1,29.80,SW,233,4.0,5.0,95,0.00,,,0.00,WeatherCatV1.02B3,2013-07-11 04:11:00,
2013-07-11 00:16:00,73.6,72.1,29.80,SSW,211,0.0,6.0,95,0.00,,,0.00,WeatherCatV1.02B3,2013-07-11 04:16:00,
2013-07-11 00:21:00,73.5,72.0,29.79,WSW,249,5.0,7.0,95,0.00,,,0.00,WeatherCatV1.02B3,2013-07-11 04:21:00,
2013-07-11 00:26:00,73.5,72.0,29.79,SW,227,6.0,8.0,95,0.00,,,0.00,WeatherCatV1.02B3,2013-07-11 04:26:00,
2013-07-11 00:31:00,73.4,71.9,29.79,SW,225,7.0,8.0,95,0.00,,,0.00,WeatherCatV1.02B3,2013-07-11 04:31:00,
2013-07-11 00:36:00,73.4,71.9,29.79,SW,222,1.0,4.0,95,0.00,,,0.00,WeatherCatV1.02B3,2013-07-11 04:36:00,
2013-07-11 00:41:00,73.4,71.9,29.79,SSW,211,2.0,3.0,95,0.00,,,0.00,WeatherCatV1.02B3,2013-07-11 04:41:00,
2013-07-11 00:46:00,73.3,71.8,29.79,ESE,120,0.0,7.0,95,0.00,,,0.00,WeatherCatV1.02B3,2013-07-11 04:46:00,
2013-07-11 00:51:00,73.2,71.7,29.79,South,183,0.0,4.0,95,0.00,,,0.00,WeatherCatV1.02B3,2013-07-11 04:51:00,
2013-07-11 00:56:00,73.2,71.7,29.79,SW,217,0.0,5.0,95,0.00,,,0.00,WeatherCatV1.02B3,2013-07-11 04:56:00,
2013-07-11 01:01:00,73.1,71.6,29.79,WSW,244,0.0,5.0,95,0.00,,,0.00,WeatherCatV1.02B3,2013-07-11 05:01:00,
2013-07-11 01:06:00,73.0,71.5,29.79,SW,220,0.0,3.0,95,0.00,,,0.00,WeatherCatV1.02B3,2013-07-11 05:06:00,
2013-07-11 01:11:00,73.0,71.5,29.79,SW,220,0.0,3.0,95,0.00,,,0.00,WeatherCatV1.02B3,2013-07-11 05:11:00,
2013-07-11 01:16:00,72.9,71.4,29.79,SW,216,4.0,6.0,95,0.00,,,0.00,WeatherCatV1.02B3,2013-07-11 05:16:00,
2013-07-11 01:21:00,72.8,71.3,29.79,WSW,248,3.0,4.0,95,0.00,,,0.01,WeatherCatV1.02B3,2013-07-11 05:21:00,
2013-07-11 01:26:00,72.8,71.3,29.79,WSW,243,2.0,4.0,95,0.00,,,0.01,WeatherCatV1.02B3,2013-07-11 05:26:00,
2013-07-11 01:31:00,72.8,71.3,29.78,WSW,242,0.0,0.0,95,0.00,,,0.01,WeatherCatV1.02B3,2013-07-11 05:31:00,
2013-07-11 01:36:00,72.7,71.2,29.78,SSW,207,0.0,3.0,95,0.00,,,0.01,WeatherCatV1.02B3,2013-07-11 05:36:00,
2013-07-11 01:41:00,72.6,71.1,29.78,SW,224,0.0,6.0,95,0.00,,,0.01,WeatherCatV1.02B3,2013-07-11 05:41:00,
2013-07-11 01:46:00,72.5,71.0,29.78,SSW,209,2.0,4.0,95,0.00,,,0.01,WeatherCatV1.02B3,2013-07-11 05:46:00,
2013-07-11 01:51:00,72.5,71.0,29.78,SW,232,4.0,4.0,95,0.00,,,0.01,WeatherCatV1.02B3,2013-07-11 05:51:00,
2013-07-11 01:56:00,72.5,71.0,29.78,SW,233,0.0,6.0,95,0.00,,,0.01,WeatherCatV1.02B3,2013-07-11 05:56:00,
2013-07-11 02:01:00,72.4,70.9,29.78,WSW,242,4.0,7.0,95,0.00,,,0.01,WeatherCatV1.02B3,2013-07-11 06:01:00,
2013-07-11 02:06:00,72.4,70.9,29.78,SSW,199,2.0,6.0,95,0.00,,,0.01,WeatherCatV1.02B3,2013-07-11 06:06:00,
2013-07-11 02:11:00,72.4,70.9,29.78,WSW,243,2.0,7.0,95,0.00,,,0.01,WeatherCatV1.02B3,2013-07-11 06:11:00,
2013-07-11 02:16:00,72.3,70.8,29.78,WSW,248,1.0,8.0,95,0.00,,,0.01,WeatherCatV1.02B3,2013-07-11 06:16:00,
2013-07-11 02:21:00,72.3,70.8,29.78,SW,221,0.0,5.0,95,0.00,,,0.01,WeatherCatV1.02B3,2013-07-11 06:21:00,
2013-07-11 02:26:00,72.2,71.0,29.78,SW,232,0.0,7.0,96,0.00,,,0.01,WeatherCatV1.02B3,2013-07-11 06:26:00,
2013-07-11 02:31:00,72.2,71.0,29.78,South,180,3.0,5.0,96,0.00,,,0.01,WeatherCatV1.02B3,2013-07-11 06:31:00,
2013-07-11 02:36:00,72.1,70.6,29.78,SSW,208,0.0,6.0,95,0.00,,,0.01,WeatherCatV1.02B3,2013-07-11 06:36:00,
2013-07-11 02:41:00,72.1,70.6,29.78,SW,221,4.0,7.0,95,0.00,,,0.01,WeatherCatV1.02B3,2013-07-11 06:41:00,
2013-07-11 02:46:00,72.1,70.6,29.78,SW,223,4.0,8.0,95,0.00,,,0.01,WeatherCatV1.02B3,2013-07-11 06:46:00,
2013-07-11 02:51:00,72.0,70.5,29.78,SSW,213,2.0,6.0,95,0.00,,,0.01,WeatherCatV1.02B3,2013-07-11 06:51:00,
2013-07-11 02:56:00,72.0,70.5,29.78,South,183,5.0,6.0,95,0.00,,,0.01,WeatherCatV1.02B3,2013-07-11 06:56:00,
2013-07-11 03:01:00,72.0,70.5,29.78,SSW,202,6.0,6.0,95,0.00,,,0.01,WeatherCatV1.02B3,2013-07-11 07:01:00,
2013-07-11 03:06:00,72.0,70.5,29.78,SSW,211,2.0,6.0,95,0.00,,,0.01,WeatherCatV1.02B3,2013-07-11 07:06:00,
2013-07-11 03:11:00,71.9,70.4,29.78,SW,236,6.0,6.0,95,0.00,,,0.01,WeatherCatV1.02B3,2013-07-11 07:11:00,
2013-07-11 03:16:00,71.9,70.4,29.78,SW,222,5.0,6.0,95,0.00,,,0.01,WeatherCatV1.02B3,2013-07-11 07:16:00,
2013-07-11 03:21:00,71.9,70.7,29.78,SW,232,3.0,6.0,96,0.00,,,0.01,WeatherCatV1.02B3,2013-07-11 07:21:00,
2013-07-11 03:26:00,71.8,70.6,29.78,SSW,206,5.0,5.0,96,0.00,,,0.01,WeatherCatV1.02B3,2013-07-11 07:26:00,
2013-07-11 03:31:00,71.9,70.7,29.78,WNW,296,3.0,5.0,96,0.00,,,0.01,WeatherCatV1.02B3,2013-07-11 07:31:00,
2013-07-11 03:36:00,71.8,70.6,29.78,SSW,209,2.0,6.0,96,0.00,,,0.01,WeatherCatV1.02B3,2013-07-11 07:36:00,
2013-07-11 03:41:00,71.9,70.7,29.78,SW,227,3.0,7.0,96,0.00,,,0.01,WeatherCatV1.02B3,2013-07-11 07:41:00,
2013-07-11 03:46:00,71.8,70.6,29.78,WSW,242,5.0,9.0,96,0.00,,,0.01,WeatherCatV1.02B3,2013-07-11 07:46:00,
2013-07-11 03:51:00,71.8,70.6,29.79,SW,223,0.0,8.0,96,0.00,,,0.01,WeatherCatV1.02B3,2013-07-11 07:51:00,
2013-07-11 03:56:00,71.8,70.6,29.79,SSW,192,0.0,5.0,96,0.00,,,0.01,WeatherCatV1.02B3,2013-07-11 07:56:00,
2013-07-11 04:01:00,71.8,70.6,29.79,SSW,207,8.0,10.0,96,0.00,,,0.01,WeatherCatV1.02B3,2013-07-11 08:01:00,
2013-07-11 04:06:00,71.9,70.4,29.79,SSE,147,0.0,4.0,95,0.00,,,0.01,WeatherCatV1.02B3,2013-07-11 08:06:00,
2013-07-11 04:11:00,71.9,70.4,29.79,SSW,193,2.0,8.0,95,0.00,,,0.01,WeatherCatV1.02B3,2013-07-11 08:11:00,
2013-07-11 04:16:00,71.9,70.4,29.79,SW,220,2.0,8.0,95,0.00,,,0.01,WeatherCatV1.02B3,2013-07-11 08:16:00,
2013-07-11 04:21:00,71.9,70.4,29.79,SW,214,5.0,8.0,95,0.00,,,0.01,WeatherCatV1.02B3,2013-07-11 08:21:00,
2013-07-11 04:26:00,71.9,70.4,29.79,WSW,248,0.0,7.0,95,0.00,,,0.01,WeatherCatV1.02B3,2013-07-11 08:26:00,
2013-07-11 04:31:00,71.9,70.4,29.79,SSW,212,8.0,8.0,95,0.00,,,0.01,WeatherCatV1.02B3,2013-07-11 08:31:00,
2013-07-11 04:36:00,72.0,70.5,29.79,SW,230,4.0,5.0,95,0.00,,,0.01,WeatherCatV1.02B3,2013-07-11 08:36:00,
2013-07-11 04:41:00,72.0,70.5,29.80,SW,217,7.0,7.0,95,0.00,,,0.01,WeatherCatV1.02B3,2013-07-11 08:41:00,
2013-07-11 04:46:00,72.0,70.5,29.80,SSW,202,1.0,8.0,95,0.00,,,0.01,WeatherCatV1.02B3,2013-07-11 08:46:00,
2013-07-11 04:51:00,72.0,70.5,29.80,SW,222,6.0,9.0,95,0.00,,,0.01,WeatherCatV1.02B3,2013-07-11 08:51:00,
2013-07-11 04:56:00,72.0,70.5,29.80,SSW,204,6.0,8.0,95,0.00,,,0.01,WeatherCatV1.02B3,2013-07-11 08:56:00,
2013-07-11 05:01:00,72.0,70.5,29.80,SW,226,7.0,7.0,95,0.00,,,0.01,WeatherCatV1.02B3,2013-07-11 09:01:00,
2013-07-11 05:06:00,72.0,70.5,29.80,SSW,201,4.0,6.0,95,0.00,,,0.01,WeatherCatV1.02B3,2013-07-11 09:06:00,
2013-07-11 05:11:00,72.0,70.5,29.80,WSW,239,5.0,6.0,95,0.00,,,0.01,WeatherCatV1.02B3,2013-07-11 09:11:00,
2013-07-11 05:16:00,72.0,70.5,29.80,WSW,252,2.0,7.0,95,0.00,,,0.01,WeatherCatV1.02B3,2013-07-11 09:16:00,
2013-07-11 05:23:00,72.0,70.5,29.80,SW,232,0.0,3.0,95,0.00,,,0.01,WeatherCatV1.02B3,2013-07-11 09:23:00,
2013-07-11 05:28:00,72.0,70.5,29.80,WSW,246,0.0,2.0,95,0.00,,,0.01,WeatherCatV1.02B3,2013-07-11 09:28:00,
2013-07-11 05:33:00,72.1,70.6,29.80,WSW,245,0.0,0.0,95,0.00,,,0.01,WeatherCatV1.02B3,2013-07-11 09:33:00,
2013-07-11 05:38:00,72.1,70.6,29.80,WSW,246,0.0,4.0,95,0.00,,,0.01,WeatherCatV1.02B3,2013-07-11 09:38:00,
2013-07-11 05:43:00,72.1,70.6,29.80,WSW,246,0.0,0.0,95,0.00,,,0.01,WeatherCatV1.02B3,2013-07-11 09:43:00,
2013-07-11 05:48:00,72.2,70.7,29.80,WSW,248,0.0,0.0,95,0.00,,,0.01,WeatherCatV1.02B3,2013-07-11 09:48:00,
2013-07-11 05:53:00,72.2,70.7,29.80,West,267,5.0,6.0,95,0.00,,,0.01,WeatherCatV1.02B3,2013-07-11 09:53:00,
2013-07-11 05:58:00,72.3,70.8,29.80,West,267,0.0,0.0,95,0.00,,,0.01,WeatherCatV1.02B3,2013-07-11 09:58:00,
2013-07-11 06:03:00,72.4,70.9,29.80,West,267,3.0,3.0,95,0.00,,,0.01,WeatherCatV1.02B3,2013-07-11 10:03:00,
2013-07-11 06:08:00,72.4,70.9,29.81,SSW,195,0.0,4.0,95,0.00,,,0.01,WeatherCatV1.02B3,2013-07-11 10:08:00,
2013-07-11 06:13:00,72.5,71.0,29.80,WSW,240,0.0,0.0,95,0.00,,,0.01,WeatherCatV1.02B3,2013-07-11 10:13:00,
2013-07-11 06:18:00,72.5,71.0,29.80,WSW,240,0.0,1.0,95,0.00,,,0.01,WeatherCatV1.02B3,2013-07-11 10:18:00,
2013-07-11 06:23:00,72.6,71.1,29.80,WSW,240,0.0,3.0,95,0.00,,,0.01,WeatherCatV1.02B3,2013-07-11 10:23:00,
2013-07-11 06:28:00,72.6,71.1,29.80,WSW,240,0.0,0.0,95,0.00,,,0.01,WeatherCatV1.02B3,2013-07-11 10:28:00,
2013-07-11 06:33:00,72.6,71.1,29.81,WSW,240,0.0,0.0,95,0.00,,,0.01,WeatherCatV1.02B3,2013-07-11 10:33:00,
2013-07-11 06:38:00,72.6,71.1,29.81,West,261,0.0,1.0,95,0.00,,,0.01,WeatherCatV1.02B3,2013-07-11 10:38:00,
2013-07-11 06:43:00,72.7,71.2,29.81,West,261,0.0,1.0,95,0.00,,,0.01,WeatherCatV1.02B3,2013-07-11 10:43:00,
2013-07-11 06:48:00,72.8,71.3,29.81,West,261,0.0,1.0,95,0.00,,,0.01,WeatherCatV1.02B3,2013-07-11 10:48:00,
2013-07-11 06:53:00,72.9,71.4,29.81,West,261,0.0,3.0,95,0.00,,,0.01,WeatherCatV1.02B3,2013-07-11 10:53:00,
2013-07-11 06:58:00,73.1,71.6,29.81,West,261,0.0,0.0,95,0.00,,,0.01,WeatherCatV1.02B3,2013-07-11 10:58:00,
2013-07-11 07:03:00,73.2,71.7,29.81,SSW,205,3.0,5.0,95,0.00,,,0.01,WeatherCatV1.02B3,2013-07-11 11:03:00,
2013-07-11 07:08:00,73.2,71.7,29.82,SSW,202,2.0,3.0,95,0.00,,,0.01,WeatherCatV1.02B3,2013-07-11 11:08:00,
2013-07-11 07:13:00,73.2,71.7,29.82,SSW,202,0.0,2.0,95,0.00,,,0.01,WeatherCatV1.02B3,2013-07-11 11:13:00,
2013-07-11 07:18:00,73.3,71.8,29.82,SSW,202,0.0,1.0,95,0.00,,,0.01,WeatherCatV1.02B3,2013-07-11 11:18:00,
2013-07-11 07:24:00,73.3,71.8,29.81,SSW,202,0.0,0.0,95,0.00,,,0.01,WeatherCatV1.02B3,2013-07-11 11:24:00,
2013-07-11 07:29:00,73.3,71.8,29.81,SSW,202,0.0,0.0,95,0.00,,,0.01,WeatherCatV1.02B3,2013-07-11 11:29:00,
2013-07-11 07:34:00,73.3,71.8,29.81,SSW,202,0.0,0.0,95,0.00,,,0.01,WeatherCatV1.02B3,2013-07-11 11:34:00,
2013-07-11 07:39:00,73.3,71.8,29.81,SSW,202,0.0,1.0,95,0.00,,,0.01,WeatherCatV1.02B3,2013-07-11 11:39:00,
2013-07-11 07:44:00,73.3,71.8,29.80,SW,229,0.0,6.0,95,0.00,,,0.01,WeatherCatV1.02B3,2013-07-11 11:44:00,
2013-07-11 07:49:00,73.3,71.8,29.80,SW,229,0.0,1.0,95,0.00,,,0.01,WeatherCatV1.02B3,2013-07-11 11:49:00,
2013-07-11 07:54:00,73.3,71.8,29.80,SW,229,0.0,2.0,95,0.00,,,0.01,WeatherCatV1.02B3,2013-07-11 11:54:00,
2013-07-11 07:59:00,73.4,71.9,29.81,SW,229,0.0,1.0,95,0.00,,,0.01,WeatherCatV1.02B3,2013-07-11 11:59:00,
2013-07-11 08:04:00,73.6,72.1,29.82,SW,229,2.0,4.0,95,0.00,,,0.01,WeatherCatV1.02B3,2013-07-11 12:04:00,
2013-07-11 08:09:00,73.7,72.2,29.82,WSW,242,1.0,3.0,95,0.00,,,0.01,WeatherCatV1.02B3,2013-07-11 12:09:00,
2013-07-11 08:14:00,73.7,72.2,29.82,WNW,289,0.0,3.0,95,0.00,,,0.01,WeatherCatV1.02B3,2013-07-11 12:14:00,
2013-07-11 08:19:00,73.8,72.3,29.81,WNW,286,0.0,0.0,95,0.00,,,0.01,WeatherCatV1.02B3,2013-07-11 12:19:00,
2013-07-11 08:24:00,73.9,72.4,29.82,WNW,286,0.0,0.0,95,0.00,,,0.01,WeatherCatV1.02B3,2013-07-11 12:24:00,
2013-07-11 08:27:00,73.8,72.3,29.82,WNW,286,0.0,0.0,95,0.00,,,0.01,WeatherCatV1.02B3,2013-07-11 12:27:00,
2013-07-11 08:32:00,73.9,72.4,29.82,WNW,285,1.0,1.0,95,0.00,,,0.01,WeatherCatV1.02B3,2013-07-11 12:32:00,
2013-07-11 08:37:00,73.8,72.3,29.82,WSW,241,0.0,5.0,95,0.00,,,0.01,WeatherCatV1.02B3,2013-07-11 12:37:00,
2013-07-11 08:42:00,73.8,72.3,29.83,SW,233,0.0,5.0,95,0.00,,,0.01,WeatherCatV1.02B3,2013-07-11 12:42:00,
2013-07-11 08:47:00,73.7,72.2,29.84,WSW,244,5.0,10.0,95,0.00,,,0.01,WeatherCatV1.02B3,2013-07-11 12:47:00,
2013-07-11 08:52:00,73.7,72.2,29.84,SSW,199,0.0,1.0,95,1.58,,,0.08,WeatherCatV1.02B3,2013-07-11 12:52:00,
2013-07-11 08:57:00,73.7,72.2,29.84,SSW,211,0.0,1.0,95,0.22,,,0.12,WeatherCatV1.02B3,2013-07-11 12:57:00,
2013-07-11 09:02:00,73.6,72.1,29.84,South,182,0.0,1.0,95,0.08,,,0.12,WeatherCatV1.02B3,2013-07-11 13:02:00,
2013-07-11 09:07:00,73.5,72.0,29.84,South,182,0.0,0.0,95,0.05,,,0.12,WeatherCatV1.02B3,2013-07-11 13:07:00,
2013-07-11 09:12:00,73.2,71.7,29.84,SW,229,0.0,1.0,95,0.00,,,0.12,WeatherCatV1.02B3,2013-07-11 13:12:00,
2013-07-11 09:17:00,72.9,71.4,29.84,South,187,0.0,0.0,95,0.00,,,0.13,WeatherCatV1.02B3,2013-07-11 13:17:00,
2013-07-11 09:22:00,72.4,70.9,29.85,WSW,238,0.0,0.0,95,0.00,,,0.13,WeatherCatV1.02B3,2013-07-11 13:22:00,
2013-07-11 09:27:00,72.0,70.2,29.84,SW,234,0.0,0.0,94,0.06,,,0.14,WeatherCatV1.02B3,2013-07-11 13:27:00,
2013-07-11 09:32:00,71.8,70.3,29.84,SW,219,0.0,0.0,95,0.06,,,0.14,WeatherCatV1.02B3,2013-07-11 13:32:00,
2013-07-11 09:37:00,71.7,70.2,29.84,SW,219,0.0,0.0,95,0.09,,,0.15,WeatherCatV1.02B3,2013-07-11 13:37:00,
2013-07-11 09:42:00,71.7,70.2,29.84,SW,219,0.0,0.0,95,0.14,,,0.16,WeatherCatV1.02B3,2013-07-11 13:42:00,
2013-07-11 09:47:00,71.8,70.3,29.84,SW,219,0.0,0.0,95,0.08,,,0.17,WeatherCatV1.02B3,2013-07-11 13:47:00,
2013-07-11 09:52:00,71.8,70.3,29.84,SW,219,0.0,0.0,95,0.09,,,0.18,WeatherCatV1.02B3,2013-07-11 13:52:00,
2013-07-11 09:57:00,71.7,70.2,29.84,SW,219,0.0,0.0,95,0.09,,,0.18,WeatherCatV1.02B3,2013-07-11 13:57:00,
2013-07-11 10:02:00,71.7,70.2,29.84,SW,219,0.0,0.0,95,0.06,,,0.18,WeatherCatV1.02B3,2013-07-11 14:02:00,
2013-07-11 10:07:00,71.7,70.2,29.84,SW,221,0.0,0.0,95,0.04,,,0.18,WeatherCatV1.02B3,2013-07-11 14:07:00,
2013-07-11 10:12:00,71.7,70.2,29.84,SW,221,0.0,0.0,95,0.00,,,0.18,WeatherCatV1.02B3,2013-07-11 14:12:00,
2013-07-11 10:17:00,71.7,70.2,29.84,SW,221,0.0,0.0,95,0.00,,,0.18,WeatherCatV1.02B3,2013-07-11 14:17:00,
2013-07-11 10:22:00,71.6,70.1,29.83,SW,221,0.0,0.0,95,0.14,,,0.20,WeatherCatV1.02B3,2013-07-11 14:22:00,
2013-07-11 10:27:00,71.5,70.0,29.84,SW,221,0.0,0.0,95,0.10,,,0.20,WeatherCatV1.02B3,2013-07-11 14:27:00,
2013-07-11 10:32:00,71.5,70.0,29.84,SW,220,0.0,0.0,95,0.09,,,0.21,WeatherCatV1.02B3,2013-07-11 14:32:00,
2013-07-11 10:39:00,71.6,70.4,29.85,SW,221,0.0,0.0,96,0.09,,,0.22,WeatherCatV1.02B3,2013-07-11 14:39:00,
2013-07-11 10:44:00,71.7,70.5,29.84,SSW,213,0.0,0.0,96,0.05,,,0.22,WeatherCatV1.02B3,2013-07-11 14:44:00,
2013-07-11 10:49:00,71.8,70.6,29.84,SSE,168,0.0,0.0,96,0.04,,,0.22,WeatherCatV1.02B3,2013-07-11 14:49:00,
2013-07-11 10:54:00,72.0,70.8,29.84,South,169,0.0,0.0,96,0.00,,,0.22,WeatherCatV1.02B3,2013-07-11 14:54:00,
2013-07-11 10:59:00,72.1,70.9,29.84,South,169,0.0,0.0,96,0.00,,,0.22,WeatherCatV1.02B3,2013-07-11 14:59:00,
2013-07-11 11:04:00,72.3,71.1,29.84,South,170,0.0,0.0,96,0.00,,,0.22,WeatherCatV1.02B3,2013-07-11 15:04:00,
2013-07-11 11:09:00,72.6,71.4,29.84,South,169,0.0,0.0,96,0.00,,,0.22,WeatherCatV1.02B3,2013-07-11 15:09:00,
2013-07-11 11:14:00,72.8,71.6,29.85,SSW,205,0.0,0.0,96,0.00,,,0.22,WeatherCatV1.02B3,2013-07-11 15:14:00,
2013-07-11 11:19:00,72.9,71.7,29.85,SSE,167,0.0,0.0,96,0.00,,,0.22,WeatherCatV1.02B3,2013-07-11 15:19:00,
2013-07-11 11:24:00,73.0,71.5,29.85,South,169,0.0,0.0,95,0.00,,,0.22,WeatherCatV1.02B3,2013-07-11 15:24:00,
2013-07-11 11:29:00,73.4,71.9,29.84,SSE,168,0.0,0.0,95,0.00,,,0.22,WeatherCatV1.02B3,2013-07-11 15:29:00,
2013-07-11 11:34:00,73.8,72.3,29.84,South,186,0.0,0.0,95,0.00,,,0.22,WeatherCatV1.02B3,2013-07-11 15:34:00,
2013-07-11 11:39:00,74.0,72.5,29.84,SSW,211,0.0,0.0,95,0.00,,,0.22,WeatherCatV1.02B3,2013-07-11 15:39:00,
2013-07-11 11:44:00,74.3,72.8,29.84,SSW,211,0.0,0.0,95,0.00,,,0.22,WeatherCatV1.02B3,2013-07-11 15:44:00,
2013-07-11 11:49:00,74.4,72.9,29.84,NW,308,0.0,0.0,95,0.00,,,0.22,WeatherCatV1.02B3,2013-07-11 15:49:00,
2013-07-11 11:54:00,74.6,73.1,29.84,NW,308,0.0,0.0,95,0.00,,,0.22,WeatherCatV1.02B3,2013-07-11 15:54:00,
2013-07-11 11:59:00,74.9,73.4,29.84,SW,231,0.0,0.0,95,0.00,,,0.22,WeatherCatV1.02B3,2013-07-11 15:59:00,
2013-07-11 12:04:00,75.4,73.5,29.83,SW,231,0.0,0.0,94,0.00,,,0.22,WeatherCatV1.02B3,2013-07-11 16:04:00,
2013-07-11 12:09:00,75.3,72.8,29.83,SW,232,0.0,0.0,92,0.00,,,0.22,WeatherCatV1.02B3,2013-07-11 16:09:00,
2013-07-11 12:14:00,75.3,72.8,29.83,SW,231,0.0,0.0,92,0.00,,,0.22,WeatherCatV1.02B3,2013-07-11 16:14:00,
2013-07-11 12:19:00,75.5,73.3,29.84,SW,232,0.0,0.0,93,0.00,,,0.22,WeatherCatV1.02B3,2013-07-11 16:19:00,
2013-07-11 12:24:00,75.8,73.6,29.83,SW,232,0.0,0.0,93,0.00,,,0.22,WeatherCatV1.02B3,2013-07-11 16:24:00,
2013-07-11 12:29:00,75.7,72.5,29.83,SW,232,0.0,0.0,90,0.00,,,0.22,WeatherCatV1.02B3,2013-07-11 16:29:00,
2013-07-11 12:34:00,76.0,73.5,29.83,SW,232,0.0,0.0,92,0.00,,,0.22,WeatherCatV1.02B3,2013-07-11 16:34:00,
2013-07-11 12:39:00,76.2,72.7,29.83,SW,232,0.0,0.0,89,0.00,,,0.22,WeatherCatV1.02B3,2013-07-11 16:39:00,
2013-07-11 12:44:00,76.5,73.7,29.83,SW,233,0.0,0.0,91,0.00,,,0.22,WeatherCatV1.02B3,2013-07-11 16:44:00,
2013-07-11 12:49:00,76.7,73.5,29.83,SW,234,0.0,0.0,90,0.00,,,0.22,WeatherCatV1.02B3,2013-07-11 16:49:00,
2013-07-11 12:54:00,76.8,73.0,29.83,SW,234,0.0,0.0,88,0.00,,,0.22,WeatherCatV1.02B3,2013-07-11 16:54:00,
2013-07-11 12:59:00,77.0,72.5,29.83,SW,235,0.0,0.0,86,0.00,,,0.22,WeatherCatV1.02B3,2013-07-11 16:59:00,
2013-07-11 13:04:00,77.1,73.3,29.83,SW,227,0.0,0.0,88,0.00,,,0.22,WeatherCatV1.02B3,2013-07-11 17:04:00,
2013-07-11 13:09:00,77.4,73.2,29.83,SW,229,0.0,0.0,87,0.00,,,0.22,WeatherCatV1.02B3,2013-07-11 17:09:00,
2013-07-11 13:14:00,77.7,72.8,29.83,South,191,0.0,0.0,85,0.00,,,0.22,WeatherCatV1.02B3,2013-07-11 17:14:00,
2013-07-11 13:19:00,77.9,73.7,29.83,SSW,192,0.0,0.0,87,0.00,,,0.22,WeatherCatV1.02B3,2013-07-11 17:19:00,
2013-07-11 13:24:00,78.1,73.2,29.83,ESE,108,0.0,0.0,85,0.00,,,0.22,WeatherCatV1.02B3,2013-07-11 17:24:00,
2013-07-11 13:29:00,78.2,73.0,29.83,SW,227,0.0,0.0,84,0.00,,,0.22,WeatherCatV1.02B3,2013-07-11 17:29:00,
2013-07-11 13:34:00,78.3,74.1,29.83,SW,229,0.0,0.0,87,0.00,,,0.22,WeatherCatV1.02B3,2013-07-11 17:34:00,
2013-07-11 13:39:00,78.5,73.6,29.83,SSE,163,0.0,0.0,85,0.00,,,0.22,WeatherCatV1.02B3,2013-07-11 17:39:00,
2013-07-11 13:44:00,78.9,74.0,29.83,SW,228,0.0,0.0,85,0.00,,,0.22,WeatherCatV1.02B3,2013-07-11 17:44:00,
2013-07-11 13:49:00,79.1,73.8,29.83,SW,227,0.0,0.0,84,0.00,,,0.22,WeatherCatV1.02B3,2013-07-11 17:49:00,
2013-07-11 13:55:00,79.0,74.1,29.83,SW,219,0.0,0.0,85,0.00,,,0.22,WeatherCatV1.02B3,2013-07-11 17:55:00,
2013-07-11 14:00:00,79.0,74.1,29.82,SW,236,0.0,0.0,85,0.00,,,0.22,WeatherCatV1.02B3,2013-07-11 18:00:00,
2013-07-11 14:05:00,79.1,74.2,29.82,WSW,246,0.0,0.0,85,0.00,,,0.22,WeatherCatV1.02B3,2013-07-11 18:05:00,
2013-07-11 14:10:00,79.2,74.6,29.82,SW,217,0.0,0.0,86,0.00,,,0.22,WeatherCatV1.02B3,2013-07-11 18:10:00,
2013-07-11 14:15:00,79.4,74.8,29.82,SSW,198,0.0,0.0,86,0.00,,,0.22,WeatherCatV1.02B3,2013-07-11 18:15:00,
2013-07-11 14:20:00,79.5,75.6,29.82,South,183,0.0,0.0,88,0.00,,,0.22,WeatherCatV1.02B3,2013-07-11 18:20:00,
2013-07-11 14:25:00,79.4,74.8,29.82,SSW,202,0.0,0.0,86,0.00,,,0.22,WeatherCatV1.02B3,2013-07-11 18:25:00,
2013-07-11 14:30:00,79.4,74.5,29.82,SSW,202,0.0,0.0,85,0.00,,,0.22,WeatherCatV1.02B3,2013-07-11 18:30:00,
2013-07-11 14:35:00,79.6,74.7,29.82,SW,215,0.0,0.0,85,0.00,,,0.22,WeatherCatV1.02B3,2013-07-11 18:35:00,
2013-07-11 14:40:00,79.8,75.6,29.82,SSW,202,0.0,0.0,87,0.00,,,0.22,WeatherCatV1.02B3,2013-07-11 18:40:00,
2013-07-11 14:45:00,79.8,75.2,29.82,WSW,244,0.0,0.0,86,0.00,,,0.22,WeatherCatV1.02B3,2013-07-11 18:45:00,
2013-07-11 14:50:00,79.8,74.5,29.82,SW,221,0.0,0.0,84,0.00,,,0.22,WeatherCatV1.02B3,2013-07-11 18:50:00,
2013-07-11 14:55:00,79.8,74.5,29.82,South,188,0.0,0.0,84,0.00,,,0.22,WeatherCatV1.02B3,2013-07-11 18:55:00,
2013-07-11 15:00:00,79.8,74.5,29.82,SW,216,0.0,0.0,84,0.00,,,0.22,WeatherCatV1.02B3,2013-07-11 19:00:00,
2013-07-11 15:05:00,80.0,74.4,29.82,ESE,111,0.0,0.0,83,0.00,,,0.22,WeatherCatV1.02B3,2013-07-11 19:05:00,
2013-07-11 15:10:00,79.9,74.6,29.82,SSW,207,0.0,0.0,84,0.00,,,0.22,WeatherCatV1.02B3,2013-07-11 19:10:00,
2013-07-11 15:15:00,79.8,74.2,29.82,WSW,240,0.0,0.0,83,0.00,,,0.22,WeatherCatV1.02B3,2013-07-11 19:15:00,
2013-07-11 15:20:00,80.0,74.7,29.82,SW,217,0.0,0.0,84,0.00,,,0.22,WeatherCatV1.02B3,2013-07-11 19:20:00,
2013-07-11 15:25:00,80.1,74.5,29.82,WSW,246,0.0,0.0,83,0.00,,,0.22,WeatherCatV1.02B3,2013-07-11 19:25:00,
2013-07-11 15:30:00,80.3,75.4,29.82,SW,217,0.0,0.0,85,0.00,,,0.22,WeatherCatV1.02B3,2013-07-11 19:30:00,
2013-07-11 15:35:00,80.5,74.8,29.82,SW,219,0.0,0.0,83,0.00,,,0.22,WeatherCatV1.02B3,2013-07-11 19:35:00,
2013-07-11 15:40:00,80.3,74.3,29.82,SW,216,0.0,0.0,82,0.00,,,0.22,WeatherCatV1.02B3,2013-07-11 19:40:00,
2013-07-11 15:45:00,80.3,75.0,29.81,SW,216,0.0,0.0,84,0.00,,,0.22,WeatherCatV1.02B3,2013-07-11 19:45:00,
2013-07-11 15:50:00,80.6,74.9,29.82,SW,216,0.0,0.0,83,0.00,,,0.22,WeatherCatV1.02B3,2013-07-11 19:50:00,
2013-07-11 15:55:00,80.8,75.1,29.81,West,269,0.0,0.0,83,0.00,,,0.22,WeatherCatV1.02B3,2013-07-11 19:55:00,
2013-07-11 16:00:00,80.7,75.4,29.81,WNW,284,0.0,0.0,84,0.00,,,0.22,WeatherCatV1.02B3,2013-07-11 20:00:00,
2013-07-11 16:05:00,80.4,74.7,29.82,WNW,284,0.0,0.0,83,0.00,,,0.22,WeatherCatV1.02B3,2013-07-11 20:05:00,
2013-07-11 16:10:00,80.3,74.3,29.82,West,265,0.0,0.0,82,0.00,,,0.22,WeatherCatV1.02B3,2013-07-11 20:10:00,
2013-07-11 16:15:00,80.2,74.9,29.82,WSW,247,0.0,0.0,84,0.00,,,0.22,WeatherCatV1.02B3,2013-07-11 20:15:00,
2013-07-11 16:20:00,80.2,74.9,29.82,WSW,245,0.0,0.0,84,0.00,,,0.22,WeatherCatV1.02B3,2013-07-11 20:20:00,
2013-07-11 16:25:00,80.3,75.0,29.82,WSW,245,0.0,0.0,84,0.00,,,0.22,WeatherCatV1.02B3,2013-07-11 20:25:00,
2013-07-11 16:30:00,80.3,74.6,29.83,WNW,285,0.0,1.0,83,0.00,,,0.22,WeatherCatV1.02B3,2013-07-11 20:30:00,
2013-07-11 16:35:00,80.5,74.8,29.82,WNW,285,0.0,1.0,83,0.00,,,0.22,WeatherCatV1.02B3,2013-07-11 20:35:00,
2013-07-11 16:40:00,80.6,73.8,29.82,WNW,286,0.0,0.0,80,0.00,,,0.22,WeatherCatV1.02B3,2013-07-11 20:40:00,
2013-07-11 16:45:00,80.6,73.1,29.82,WNW,283,0.0,1.0,78,0.00,,,0.22,WeatherCatV1.02B3,2013-07-11 20:45:00,
2013-07-11 16:50:00,80.8,72.5,29.82,West,280,0.0,1.0,76,0.00,,,0.22,WeatherCatV1.02B3,2013-07-11 20:50:00,
2013-07-11 16:55:00,80.9,72.6,29.83,WNW,286,0.0,1.0,76,0.00,,,0.22,WeatherCatV1.02B3,2013-07-11 20:55:00,
2013-07-11 17:00:00,81.0,73.1,29.83,WNW,286,0.0,0.0,77,0.00,,,0.22,WeatherCatV1.02B3,2013-07-11 21:00:00,
2013-07-11 17:05:00,80.9,72.2,29.83,SSW,213,0.0,1.0,75,0.00,,,0.22,WeatherCatV1.02B3,2013-07-11 21:05:00,
2013-07-11 17:10:00,80.8,72.9,29.82,West,276,0.0,1.0,77,0.00,,,0.22,WeatherCatV1.02B3,2013-07-11 21:10:00,
2013-07-11 17:15:00,80.6,72.3,29.82,NW,306,0.0,1.0,76,0.00,,,0.22,WeatherCatV1.02B3,2013-07-11 21:15:00,
2013-07-11 17:20:00,80.6,73.1,29.82,WNW,295,0.0,2.0,78,0.00,,,0.22,WeatherCatV1.02B3,2013-07-11 21:20:00,
2013-07-11 17:25:00,80.7,73.6,29.82,WNW,294,0.0,1.0,79,0.00,,,0.22,WeatherCatV1.02B3,2013-07-11 21:25:00,
2013-07-11 17:30:00,80.5,74.1,29.82,WNW,295,0.0,1.0,81,0.00,,,0.22,WeatherCatV1.02B3,2013-07-11 21:30:00,
2013-07-11 17:35:00,80.3,73.5,29.82,WNW,294,0.0,0.0,80,0.00,,,0.22,WeatherCatV1.02B3,2013-07-11 21:35:00,
2013-07-11 17:40:00,80.3,72.8,29.82,WNW,290,4.0,4.0,78,0.00,,,0.22,WeatherCatV1.02B3,2013-07-11 21:40:00,
2013-07-11 17:45:00,80.4,73.3,29.83,WNW,283,0.0,1.0,79,0.00,,,0.22,WeatherCatV1.02B3,2013-07-11 21:45:00,
2013-07-11 17:50:00,80.5,73.4,29.83,WNW,284,0.0,1.0,79,0.00,,,0.22,WeatherCatV1.02B3,2013-07-11 21:50:00,
2013-07-11 17:55:00,80.5,73.0,29.83,WNW,284,0.0,0.0,78,0.00,,,0.22,WeatherCatV1.02B3,2013-07-11 21:55:00,
2013-07-11 18:00:00,80.4,73.3,29.83,WNW,284,4.0,4.0,79,0.00,,,0.22,WeatherCatV1.02B3,2013-07-11 22:00:00,
2013-07-11 18:05:00,80.4,72.9,29.83,WNW,284,0.0,4.0,78,0.00,,,0.22,WeatherCatV1.02B3,2013-07-11 22:05:00,
2013-07-11 18:10:00,80.5,73.4,29.83,WNW,284,0.0,1.0,79,0.00,,,0.22,WeatherCatV1.02B3,2013-07-11 22:10:00,
2013-07-11 18:15:00,80.5,73.4,29.83,WNW,285,4.0,5.0,79,0.00,,,0.22,WeatherCatV1.02B3,2013-07-11 22:15:00,
2013-07-11 18:20:00,80.5,72.6,29.83,WNW,285,0.0,0.0,77,0.00,,,0.22,WeatherCatV1.02B3,2013-07-11 22:20:00,
2013-07-11 18:25:00,80.4,72.5,29.84,WNW,285,0.0,3.0,77,0.00,,,0.22,WeatherCatV1.02B3,2013-07-11 22:25:00,
2013-07-11 18:30:00,80.4,73.3,29.84,WNW,285,0.0,0.0,79,0.00,,,0.22,WeatherCatV1.02B3,2013-07-11 22:30:00,
2013-07-11 18:35:00,80.3,73.9,29.84,WNW,285,0.0,0.0,81,0.00,,,0.22,WeatherCatV1.02B3,2013-07-11 22:35:00,
2013-07-11 18:40:00,80.0,74.4,29.84,WNW,285,0.0,0.0,83,0.00,,,0.22,WeatherCatV1.02B3,2013-07-11 22:40:00,
2013-07-11 18:45:00,79.6,74.0,29.84,WNW,285,0.0,0.0,83,0.00,,,0.22,WeatherCatV1.02B3,2013-07-11 22:45:00,
2013-07-11 18:50:00,79.3,73.7,29.85,WNW,285,0.0,0.0,83,0.00,,,0.22,WeatherCatV1.02B3,2013-07-11 22:50:00,
2013-07-11 18:55:00,79.0,73.7,29.85,WNW,285,0.0,0.0,84,0.00,,,0.22,WeatherCatV1.02B3,2013-07-11 22:55:00,
2013-07-11 19:00:00,78.7,73.8,29.85,WNW,285,0.0,0.0,85,0.00,,,0.22,WeatherCatV1.02B3,2013-07-11 23:00:00,
2013-07-11 19:05:00,78.4,73.1,29.85,WNW,285,0.0,0.0,84,0.00,,,0.22,WeatherCatV1.02B3,2013-07-11 23:05:00,
2013-07-11 19:10:00,78.2,72.6,29.85,WNW,285,0.0,1.0,83,0.00,,,0.22,WeatherCatV1.02B3,2013-07-11 23:10:00,
2013-07-11 19:15:00,78.2,72.6,29.85,WNW,288,0.0,1.0,83,0.00,,,0.22,WeatherCatV1.02B3,2013-07-11 23:15:00,
2013-07-11 19:21:00,78.2,72.6,29.86,WNW,288,0.0,0.0,83,0.00,,,0.22,WeatherCatV1.02B3,2013-07-11 23:21:00,
2013-07-11 19:26:00,78.1,72.9,29.86,WNW,288,0.0,0.0,84,0.00,,,0.22,WeatherCatV1.02B3,2013-07-11 23:26:00,
2013-07-11 19:31:00,78.0,72.4,29.86,WNW,288,0.0,0.0,83,0.00,,,0.22,WeatherCatV1.02B3,2013-07-11 23:31:00,
2013-07-11 19:36:00,77.9,71.9,29.86,WNW,288,0.0,0.0,82,0.00,,,0.22,WeatherCatV1.02B3,2013-07-11 23:36:00,
2013-07-11 19:41:00,77.7,72.5,29.86,WNW,288,0.0,0.0,84,0.00,,,0.22,WeatherCatV1.02B3,2013-07-11 23:41:00,
2013-07-11 19:46:00,77.6,73.1,29.87,WNW,288,0.0,1.0,86,0.00,,,0.22,WeatherCatV1.02B3,2013-07-11 23:46:00,
2013-07-11 19:51:00,77.5,73.3,29.87,WNW,288,0.0,1.0,87,0.00,,,0.22,WeatherCatV1.02B3,2013-07-11 23:51:00,
2013-07-11 19:56:00,76.7,72.2,29.87,WNW,288,0.0,1.0,86,0.00,,,0.22,WeatherCatV1.02B3,2013-07-11 23:56:00,
2013-07-11 20:01:00,76.2,72.0,29.87,North,11,0.0,3.0,87,0.00,,,0.22,WeatherCatV1.02B3,2013-07-12 00:01:00,
2013-07-11 20:06:00,75.8,71.0,29.88,North,11,0.0,0.0,85,0.00,,,0.22,WeatherCatV1.02B3,2013-07-12 00:06:00,
2013-07-11 20:11:00,75.7,70.9,29.88,North,11,0.0,0.0,85,0.00,,,0.22,WeatherCatV1.02B3,2013-07-12 00:11:00,
2013-07-11 20:16:00,75.5,70.7,29.88,North,11,0.0,0.0,85,0.00,,,0.22,WeatherCatV1.02B3,2013-07-12 00:16:00,
2013-07-11 20:21:00,75.3,70.5,29.88,North,11,0.0,0.0,85,0.00,,,0.22,WeatherCatV1.02B3,2013-07-12 00:21:00,
2013-07-11 20:26:00,75.2,70.7,29.88,North,11,0.0,0.0,86,0.00,,,0.22,WeatherCatV1.02B3,2013-07-12 00:26:00,
2013-07-11 20:31:00,75.0,70.5,29.88,North,11,0.0,0.0,86,0.00,,,0.22,WeatherCatV1.02B3,2013-07-12 00:31:00,
2013-07-11 20:37:00,74.7,70.6,29.89,North,11,0.0,0.0,87,0.00,,,0.22,WeatherCatV1.02B3,2013-07-12 00:37:00,
2013-07-11 20:42:00,74.5,70.0,29.89,North,11,0.0,0.0,86,0.00,,,0.22,WeatherCatV1.02B3,2013-07-12 00:42:00,
2013-07-11 20:47:00,74.3,70.2,29.89,North,11,0.0,0.0,87,0.00,,,0.22,WeatherCatV1.02B3,2013-07-12 00:47:00,
2013-07-11 20:52:00,74.1,70.0,29.89,North,11,0.0,0.0,87,0.00,,,0.22,WeatherCatV1.02B3,2013-07-12 00:52:00,
2013-07-11 20:57:00,74.0,70.2,29.89,North,11,0.0,0.0,88,0.00,,,0.22,WeatherCatV1.02B3,2013-07-12 00:57:00,
2013-07-11 21:02:00,73.8,70.0,29.89,North,11,0.0,0.0,88,0.00,,,0.22,WeatherCatV1.02B3,2013-07-12 01:02:00,
2013-07-11 21:07:00,73.7,69.9,29.89,North,11,0.0,0.0,88,0.00,,,0.22,WeatherCatV1.02B3,2013-07-12 01:07:00,
2013-07-11 21:12:00,73.6,70.1,29.90,North,11,0.0,0.0,89,0.00,,,0.22,WeatherCatV1.02B3,2013-07-12 01:12:00,
2013-07-11 21:17:00,73.5,70.0,29.90,North,11,0.0,0.0,89,0.00,,,0.22,WeatherCatV1.02B3,2013-07-12 01:17:00,
2013-07-11 21:22:00,73.3,69.9,29.90,North,11,0.0,0.0,89,0.00,,,0.22,WeatherCatV1.02B3,2013-07-12 01:22:00,
2013-07-11 21:27:00,73.2,70.1,29.90,North,11,0.0,0.0,90,0.00,,,0.22,WeatherCatV1.02B3,2013-07-12 01:27:00,
2013-07-11 21:32:00,73.1,70.0,29.90,North,11,0.0,0.0,90,0.00,,,0.22,WeatherCatV1.02B3,2013-07-12 01:32:00,
2013-07-11 21:37:00,72.9,69.8,29.90,North,11,0.0,0.0,90,0.00,,,0.22,WeatherCatV1.02B3,2013-07-12 01:37:00,
2013-07-11 21:42:00,72.7,69.6,29.90,North,11,0.0,0.0,90,0.00,,,0.22,WeatherCatV1.02B3,2013-07-12 01:42:00,
2013-07-11 21:48:00,72.5,69.7,29.90,North,11,0.0,0.0,91,0.00,,,0.22,WeatherCatV1.02B3,2013-07-12 01:48:00,
2013-07-11 21:53:00,72.3,69.8,29.90,North,11,0.0,0.0,92,0.00,,,0.22,WeatherCatV1.02B3,2013-07-12 01:53:00,
2013-07-11 21:58:00,72.1,69.6,29.90,North,11,0.0,0.0,92,0.00,,,0.22,WeatherCatV1.02B3,2013-07-12 01:58:00,
2013-07-11 22:03:00,71.8,69.3,29.90,North,11,0.0,0.0,92,0.00,,,0.22,WeatherCatV1.02B3,2013-07-12 02:03:00,
2013-07-11 22:08:00,71.5,69.0,29.90,North,11,0.0,0.0,92,0.00,,,0.22,WeatherCatV1.02B3,2013-07-12 02:08:00,
2013-07-11 22:13:00,71.4,69.3,29.91,North,11,0.0,0.0,93,0.00,,,0.22,WeatherCatV1.02B3,2013-07-12 02:13:00,
2013-07-11 22:18:00,71.2,69.1,29.91,North,11,0.0,0.0,93,0.00,,,0.22,WeatherCatV1.02B3,2013-07-12 02:18:00,
2013-07-11 22:23:00,71.1,69.0,29.91,North,11,0.0,0.0,93,0.00,,,0.22,WeatherCatV1.02B3,2013-07-12 02:23:00,
2013-07-11 22:28:00,70.9,68.8,29.91,North,11,0.0,0.0,93,0.00,,,0.22,WeatherCatV1.02B3,2013-07-12 02:28:00,
2013-07-11 22:33:00,70.7,68.6,29.91,North,11,0.0,0.0,93,0.00,,,0.22,WeatherCatV1.02B3,2013-07-12 02:33:00,
2013-07-11 22:38:00,70.5,68.4,29.91,North,11,0.0,0.0,93,0.00,,,0.22,WeatherCatV1.02B3,2013-07-12 02:38:00,
2013-07-11 22:43:00,70.4,68.6,29.91,North,11,0.0,0.0,94,0.00,,,0.22,WeatherCatV1.02B3,2013-07-12 02:43:00,
2013-07-11 22:50:00,70.3,68.5,29.91,North,11,0.0,0.0,94,0.00,,,0.22,WeatherCatV1.02B3,2013-07-12 02:50:00,
2013-07-11 22:55:00,70.2,68.4,29.91,North,11,0.0,0.0,94,0.00,,,0.22,WeatherCatV1.02B3,2013-07-12 02:55:00,
2013-07-11 23:00:00,70.1,68.3,29.91,North,11,0.0,0.0,94,0.00,,,0.22,WeatherCatV1.02B3,2013-07-12 03:00:00,
2013-07-11 23:05:00,70.0,68.2,29.91,North,11,0.0,0.0,94,0.00,,,0.22,WeatherCatV1.02B3,2013-07-12 03:05:00,
2013-07-11 23:10:00,69.9,68.1,29.92,North,11,0.0,0.0,94,0.00,,,0.22,WeatherCatV1.02B3,2013-07-12 03:10:00,
2013-07-11 23:15:00,69.9,68.1,29.92,North,11,0.0,0.0,94,0.00,,,0.22,WeatherCatV1.02B3,2013-07-12 03:15:00,
2013-07-11 23:20:00,69.8,68.0,29.92,North,11,0.0,0.0,94,0.00,,,0.22,WeatherCatV1.02B3,2013-07-12 03:20:00,
2013-07-11 23:25:00,69.6,67.8,29.92,North,11,0.0,0.0,94,0.00,,,0.22,WeatherCatV1.02B3,2013-07-12 03:25:00,
2013-07-11 23:30:00,69.5,67.7,29.92,North,11,0.0,1.0,94,0.00,,,0.22,WeatherCatV1.02B3,2013-07-12 03:30:00,
2013-07-11 23:35:00,69.5,68.0,29.92,North,11,0.0,0.0,95,0.00,,,0.22,WeatherCatV1.02B3,2013-07-12 03:35:00,
2013-07-11 23:40:00,69.5,68.0,29.92,North,11,0.0,0.0,95,0.00,,,0.22,WeatherCatV1.02B3,2013-07-12 03:40:00,
2013-07-11 23:45:00,69.4,67.9,29.92,North,11,0.0,0.0,95,0.00,,,0.22,WeatherCatV1.02B3,2013-07-12 03:45:00,
2013-07-11 23:50:00,69.4,67.9,29.93,North,11,0.0,1.0,95,0.00,,,0.22,WeatherCatV1.02B3,2013-07-12 03:50:00,
2013-07-11 23:55:00,69.3,67.5,29.93,North,11,0.0,0.0,94,0.00,,,0.22,WeatherCatV1.02B3,2013-07-12 03:55:00,